Showing default

GALILEO 19 (2C5), 43055

Orbit data source: Space-Track

GALILEO 19 (2C5), 43055 is a payload satellite owned by GNSS Agency (ESA) that was launched on Tue, 12 Dec 2017 UTC via an ARIANE 5ES launch vehicle from the French Guiana (FRGUI). Payloads include a variety of satellites, spacecraft, and rockets equipped with specific instruments for various scientific and technological missions. These include communications satellites like Starlink; space stations such as the ISS; scientific satellites like the Hubble; Earth observation satellites from companies like Planet Labs, Umbra, and HawkEye 360; GPS; miniature CubeSats for education and research; and military/defense satellites.

Loading next visibility...
GALILEO 19 (2C5) details
Identifier
43055, 2017-079A
Orbit
Active
Last TLE update6 days ago
Origin
Flag of ESAGNSS Agency (ESA)
ManufacturerOHB
MissionOperational Civil Navigation
Bus & MotorGALILEOSAT, AOCS
Mass715 kg wet, 700 kg dry
Launch date (UTC)
2017-12-12 (7 years ago)
Launch vehicle
ARIANE 5ES
Launch site
French Guiana (FRGUI)
Object type
Payload
Rocket body
Debris
Shape & HBRBox + 2 Pan, 14.71 m
Radar Cross Section9.223 m², Large (>1 m²)

Expand to show TLE details & history

TLE from 6 days ago
0 GALILEO 19 (2C5)
1 43055U 17079A   24343.52222391  .00000021  00000-0  00000+0 0  9995
2 43055  55.2662 236.8003 0001363 329.0988  30.9663  1.70473692 43518
Epoch: 2024-12-08T12:32Z
Definitive object data (Epoch: 2024-12-08T12:32:00.145Z)
Latitude0.00001°
Longitude-28.95667°
Altitude23,219.023 km
Speed3.67 km/s
True Right ascension15h 47m 12s
True Declination0° 00' 00"
Sunlit
Object was in daylight at TLE epoch
Visualization TLE readout
Latitude-54.1164°
Longitude-136.09402°
Altitude23,240.651 km
Speed3.669 km/s
Apparent Right ascension09h 44m 04s
Apparent Declination-59° 42' 56"
Sunlit
Object is in daylight
Visualization observer readout
Local Sidereal Time03:57:34
Azimuth143.542° SSE
Elevation-32.095°
Doppler factor1
Orbital elements
Apogee altitude23,226.252 km
Perigee altitude23,218.183 km
Semi-major axis29,600.354 km
Eccentricity0.0001363
Inclination55.2662°
RAAN236.8003°
Arg. of periapsis329.0988°
True anomaly30.97434°
Mean anomaly30.9663°
Eccentric anomaly30.97032°
Mean motion0.42618 °/min
BSTARUnknown
Orbital period844.7 mins
Loading maneuver chart data...
Loading historical data...
Loading historical data...
Loading historical data...
Loading historical data...
Loading historical data...
Loading historical data...
Loading historical data...

GALILEO 19 (2C5) Visibility forecast

Observer location: undefined°, undefined

Span
Click to sort rows by Start time (UTC) header in descending order
Start Az.
Max El. time (UTC)
Max El. Az.
Max El.
End time (UTC)
End Az.
253 mins2024-12-15 01:11:31.472Z299.275° NW2024-12-15 04:37:31.472Z265.939° W42.648°2024-12-15 05:24:31.472Z227.167° WSW
|